Powrót do katalogu

DELTA 1 DEB

AktywnySSO
NORAD 42629·DEBRIS·🇺🇸 United States

Wystrzelony Jun 12, 1975 z Vandenberg Space Force Base

Loading…

Następne Przeloty (najbliższe 24 godziny)

TLE

NieaktualneSource: Space-Track

Epoka: Aug 20, 2026, 13:11 UTC

1 42629U 75052LN  26232.54931414  .00000087  00000-0  26865-3 0  9993
2 42629  99.8803 353.5697 0073455 242.8447 116.5173 13.31102526 75960

Śledź DELTA 1 DEB w czasie rzeczywistym z AllMySat

Download on the App Store